Regional Weather Roundup
Issued by NWS

Home | Current Version | Previous Version | Text Only | Print | Product List | Glossary On
Versions: 1 2 3 4 5 6 7 8 9 10 11 12 13 14 15 16 17 18 19 20 21 22 23 24 25 26 27
000
ASUS45 KBOU 172310
RWRCO

WEATHER ROUNDUP FOR COLORADO
NATIONAL WEATHER SERVICE DENVER/BOULDER CO
400 PM MST FRI NOV 17 2017

NOTE: "FAIR" INDICATES FEW OR NO CLOUDS BELOW 12000 FEET WITH NO
SIGNIFICANT WEATHER AND/OR OBSTRUCTIONS TO VISIBILITY.

COZ001>005-013-030-031-180000-
...NORTHWEST COLORADO...

CITY           SKY/WX    TMP DP  RH WIND       PRES   REMARKS
CRAIG          LGT SNOW  33  31  92 SW7       29.79R VSB 3/4 WCI  27
HAYDEN         SNOW      32  31  96 W7        29.80R VSB 1/2 WCI  26
MEEKER         LGT RAIN  39  32  76 MISG      29.77R
RABBIT EARS PA HVY SNOW  25  23  93 W13G21    29.77R VSB<1/4 WCI  13
STEAMBOAT SPGS CLOUDY    32  31  98 NW8       29.76R WCI  25
WALDEN         CLOUDY    30  27  86 NW15      29.75R VSB 1   WCI  19
$$

COZ006>008-011-180000-
...WEST CENTRAL VALLEYS...

CITY           SKY/WX    TMP DP  RH WIND       PRES   REMARKS
GRAND JUNCTION LGT RAIN  54  43  66 NW17      29.66S
MONTROSE       LGT RAIN  53  38  56 W15G25    29.77R
EAGLE          LGT RAIN  45  36  70 W29G43    29.72R
RIFLE          MOCLDY    51  37  58 SW30G45   29.68F
DELTA          FAIR      66  27  23 SW23G30   29.68F
NUCLA          CLOUDY    59  30  33 SW31G44   29.80F
$$

COZ017>023-064>068-180000-
...SOUTHWEST COLORADO...

CITY           SKY/WX    TMP DP  RH WIND       PRES   REMARKS
DURANGO        FAIR      52  36  54 SW17G32   29.90F
CORTEZ         FAIR      59  36  42 SW18G26   29.87F
PAGOSA SPRINGS CLOUDY    44  41  89 W6        29.93F
TELLURIDE      RAIN      43  32  63 SW16G26   29.94S
WOLF CREEK PAS HVY SNOW  28  28 100 SW25G48   29.99S VSB<1/4 WCI  14
$$

COZ009-010-012-014-032>034-037-058>063-180000-
...CENTRAL COLORADO...

CITY           SKY/WX    TMP DP  RH WIND       PRES   REMARKS
ASPEN          MOCLDY    51  21  30 VRB5G33   29.71F
BUENA VISTA    MOCLDY    43  32  64 S8        29.75F
COPPER MTN     LGT SNOW  34  23  64 MISG      29.81S
BERTHOUD PASS  SNOW      23  12  63 W35G58    29.77F VSB 1/2 WCI   4
COTTONWOOD PAS CLOUDY    43  32  65 SW14G33   29.79F
GUNNISON       LGT RAIN  44  34  67 W23G32    29.78F
KREMMLING      LGT RAIN  45  34  65 W16G28    29.71R
LEADVILLE      LGT SNOW  30  29  96 S6        29.77F FOG     WCI  24
MONARCH PASS   CLOUDY    28  27  93 MISG      29.90F
SALIDA         CLOUDY    46  37  70 W21G29    29.85R
SUNLIGHT       LGT SNOW  30  28  93 SW21G37   29.82S VSB 1   WCI  17
WILKERSON PASS FAIR      32  27  80 SW17G26   29.85S WCI  21
$$

COZ069>075-180000-
...SAN LUIS VALLEY/SANGRE DE CRISTO MOUNTAINS...

CITY           SKY/WX    TMP DP  RH WIND       PRES   REMARKS
ALAMOSA        FAIR      46  35  65 SW15G22   29.86F
DEL NORTE      CLOUDY    48  31  51 SW20      29.84F
LA VETA PASS   CLOUDY    34  30  86 S29G53      N/A  WCI  20
SAGUACHE       LGT RAIN  52  28  40 NW17      29.79R
$$

COZ035-036-038>040-180000-
...NORTHERN COLORADO FRONT RANGE...

CITY           SKY/WX    TMP DP  RH WIND       PRES   REMARKS
DENVER INTL AP FAIR      52  35  52 NE24G30   29.60R
DMNS CITY PARK   N/A     60  29  31 NW9       29.58S
AURORA         PTCLDY    60  31  34 W7        29.59S
FRONT RANGE AP MOCLDY    55  37  50 N22G31    29.62R
ERIE MUNI ARPT FAIR      58  30  34 SW7       29.63R
BOULDER MUN AP FAIR      59  32  36 S13G18    29.59R
CENTENNIAL     FAIR      60  31  33 SW17      29.60S
BROOMFIELD     MOCLDY    57  28  33 W51G68    29.61R
FORT COLLINS   CLOUDY    46  36  68 NE17G31   29.65R
LONGMONT       MOCLDY    52  36  54 NE18G26   29.62R
$$

COZ041-046-047-076>085-087-088-180000-
...PIKES PEAK/PALMER DIVIDE AND SOUTHERN FOOTHILLS...

CITY           SKY/WX    TMP DP  RH WIND       PRES   REMARKS
COLO. SPRINGS  FAIR      63  24  22 W14G28    29.65R
A. F. ACADEMY  FAIR      59  22  24 SW25G33   29.66R
SCHRIEVER AFB  FAIR      62  22  21 W20G26    29.65R
CHEYENNE MTN   FAIR      56  23  28 S10G17    29.63R
ELLICOTT       NOT AVBL
FALCON         FAIR      57  23  26 W20G30    29.69R
FORT CARSON    FAIR      64  25  22 W35G46    29.63R
LIMON          FAIR      64  26  23 W20G26    29.58R
MONUMENT HILL  FAIR      54  28  37 W20       29.69S
CANON CITY     CLOUDY    64  32  29 W6G18     29.62S
WALSENBURG     FAIR      59  34  38 SW29G47   29.71F
TRINIDAD       FAIR      62  32  32 W25G35    29.73F
$$

COZ042>045-048>051-090-091-180000-
...NORTHEAST COLORADO...

CITY           SKY/WX    TMP DP  RH WIND       PRES   REMARKS
GREELEY ARPT   LGT RAIN  50  38  63 N18G24    29.64R
AKRON          FAIR      53  30  41 NE18G24   29.59S
BURLINGTON     FAIR      60  32  34 NE10      29.54S
WRAY           NOT AVBL
YUMA           FAIR      54  32  43 NE10      29.57F
STERLING       FAIR      52  39  62 N12G21    29.59S
HOLYOKE        FAIR      57  32  38 NE10      29.59F
FORT MORGAN    FAIR      50  37  60 N20       29.61R
$$

COZ086-089-092>099-180000-
...SOUTHEAST COLORADO...

CITY           SKY/WX    TMP DP  RH WIND       PRES   REMARKS
PUEBLO         FAIR      68  34  28 SW9       29.60S
LA JUNTA       FAIR      71  33  24 W32G43    29.57S
LAMAR          FAIR      74  32  21 W30G41    29.53S
SPRINGFIELD      N/A     72  32  23 W25G39    29.63R
$$




USA.gov is the U.S. government's official web portal to all federal, state and local government web resources and services.